EVENES_(CIV/MIL) current weather conditions

sailwx.info

Last reported at 2020-Jan-23 12:30 UTC.
Time now 2020-Jan-23 13:51 UTC

Location: N 68°31' E 016°41'.
View on Google Maps.

See reports from other nearby stations

  
Tides and Currents Weather Stations Pressure Air Temp Water Temp Dewpoint Dewpoint Depression Visibility Wind Speed Wind Dir Waves Ship Positions
date/time (UTC)wind fromknots sea level pressurealtimeterstation pressurevisibilityair tempwater tempwave heightnotes
2020-Jan-23 12:50 160 6 5.4 2.0 Showers in the vicinity.
2020-Jan-23 12:20 140 6 5.4 2.0 Light rain showers.
2020-Jan-23 11:50 1.5 1.0 Light rain showers.
2020-Jan-23 11:20 110 14 5.4 1.0 Light rain showers.
2020-Jan-23 10:50 130 12 2.7 1.0 Light drizzle snow.
2020-Jan-23 10:20 120 13 1.3 1.0 Light snow.
2020-Jan-23 09:50 120 12 3.2 1.0 Showers in the vicinity.
2020-Jan-23 09:20 140 12 2.5 1.0 Light snow.
2020-Jan-23 08:50 130 12 1.5 1.0 Light snow showers.
2020-Jan-23 08:20 140 9 0.7-0.0 Light snow showers.
2020-Jan-23 07:50 130 13 1.1-0.0 Snow showers.
2020-Jan-23 07:20 130 13 0.8-0.0 Snow showers.
2020-Jan-23 06:50 120 12 1.1-0.0 Snow showers.
2020-Jan-23 06:20 130 13 1.3-0.0 Light snow showers.
2020-Jan-23 05:50 1.3-0.0 Light snow showers.
2020-Jan-23 05:20 130 11 1.6 1.0 Light snow showers.
2020-Jan-23 04:50 150 7 5.4-0.0 Light snow.
2020-Jan-23 04:20 130 6 5.4-0.0 Light snow.
2020-Jan-23 03:50 120 8 5.4-0.0 Snow grains.
2020-Jan-23 03:20 130 9 4.3-0.0 Light snow.
2020-Jan-23 02:50 150 4 5.4-2.0
2020-Jan-23 02:20 160 2 5.4-2.0 Precipitation.
2020-Jan-23 01:50 5.4-3.0
2020-Jan-23 01:20 5.4-4.0
2020-Jan-23 00:50 290 1 5.4-4.0
2020-Jan-23 00:20 5.4-5.0
2020-Jan-22 23:50 5.4-5.0
2020-Jan-22 23:20 5.4-5.0
2020-Jan-22 22:50 5.4-5.0
2020-Jan-22 22:20 5.4-5.0
2020-Jan-22 21:50 5.4-5.0
2020-Jan-22 21:20 350 4 5.4-5.0
2020-Jan-22 20:50 060 4 5.4-3.0
2020-Jan-22 20:20 350 2 5.4-4.0
2020-Jan-22 19:50 5.4-3.0 Light snow.
2020-Jan-22 19:20 010 2 5.4-4.0
2020-Jan-22 18:50 020 4 5.4-4.0
2020-Jan-22 18:20 5.4-3.0
2020-Jan-22 17:50 5.4-2.0 Light snow.
2020-Jan-22 17:20 5.4-3.0
2020-Jan-22 16:50 5.4-2.0
2020-Jan-22 16:20 040 5 4.3-2.0 Light snow.
2020-Jan-22 15:50 5.4-3.0
2020-Jan-22 15:20 360 4 5.4-3.0
2020-Jan-22 14:50 5.4-2.0
2020-Jan-22 14:20 5.4-3.0
2020-Jan-22 13:50 5.4-2.0
2020-Jan-22 13:20 5.4-2.0
2020-Jan-22 12:50 5.4-3.0
2020-Jan-22 12:20 5.4-3.0
2020-Jan-22 11:50 310 2 5.4-2.0
2020-Jan-22 11:20 5.4-2.0
2020-Jan-22 10:50 290 2 5.4-2.0
2020-Jan-22 10:20 320 6 5.4-1.0
2020-Jan-22 09:50 320 4 5.4-1.0
2020-Jan-22 09:20 350 7 5.4-2.0
2020-Jan-22 08:50 340 9 5.4-1.0 Light snow showers.
2020-Jan-22 08:20 340 12 5.4-1.0 Light snow showers.
2020-Jan-22 07:50 330 9 4.9-1.0 Light snow showers.
2020-Jan-22 07:20 330 13 2.2-1.0 Light snow showers.
2020-Jan-22 06:50 350 8 5.4-1.0 Light snow.
2020-Jan-22 06:20 330 11 5.4-1.0 Light snow.
2020-Jan-22 05:50 340 11 5.4-0.0
2020-Jan-22 05:20 320 6 4.9-0.0 Light snow showers.
2020-Jan-22 04:50 320 12 1.3-0.0 Snow showers.
2020-Jan-22 04:20 340 8 5.4 1.0
2020-Jan-22 03:50 320 7 4.3-0.0 Light snow.
2020-Jan-22 03:20 5.4-1.0
2020-Jan-22 02:50 5.4-1.0
2020-Jan-22 02:20 020 4 0.5-2.0 Light snow.
2020-Jan-22 01:50 0.6-3.0 Light snow.
2020-Jan-22 01:20 5.4-4.0 Light snow.
2020-Jan-22 00:50 2.7-5.0 Light ice pellets.
2020-Jan-22 00:20 5.4-6.0
2020-Jan-21 23:50 030 1 5.4-6.0
2020-Jan-21 23:20 5.4-6.0
2020-Jan-21 22:50 5.4-5.0
2020-Jan-21 22:20 360 2 5.4-6.0
2020-Jan-21 21:50 5.4-4.0
2020-Jan-21 21:20 5.4-3.0
2020-Jan-21 20:50 5.4-3.0
2020-Jan-21 20:20 5.4-3.0
2020-Jan-21 19:50 5.4-1.0 Showers in the vicinity.
2020-Jan-21 19:20 4.3-1.0 Light snow showers.
2020-Jan-21 18:50 260 2 4.3-1.0 Light snow showers.
2020-Jan-21 18:20 110 6 5.4-1.0 Showers in the vicinity.
2020-Jan-21 17:50 240 6 5.4-1.0 Light snow showers.
2020-Jan-21 17:20 230 6 5.4-1.0 Light snow showers.
2020-Jan-21 16:50 180 4 5.4-2.0 Light snow showers.
2020-Jan-21 16:20 230 6 5.4-2.0 Light snow showers.
2020-Jan-21 15:50 250 6 3.2-1.0 Light snow showers.
2020-Jan-21 15:20 100 5 5.4-1.0
2020-Jan-21 14:50 5.4-1.0 Light snow.
2020-Jan-21 14:20 250 6 0.9-1.0 Snow.
2020-Jan-21 13:50 240 7 5.4-0.0 Light snow.
2020-Jan-21 13:20 230 6 5.4-1.0 Light snow.